North Bennington, VT

2:02 AM EST on February 14, 2016 (GMT -0500)
Morse State

Weather History for KDDH - June, 2014

Change the Weather History Date:

Monday, June 23, 2014

  Actual Average Record
Temperature  
Mean Temperature 66 °F 66 °F  
Max Temperature 81 °F 77 °F 89 °F (2013)
Min Temperature 50 °F 55 °F 42 °F (2005)
Degree Days  
Heating Degree Days 0 2  
Month to date heating degree days 47 88  
Since 1 June heating degree days 47 88  
Since 1 July heating degree days 7298 7227  
Cooling Degree Days 1 2  
Month to date cooling degree days 28 37  
Year to date cooling degree days 44 51  
Since 1 June cooling degree days 28 37  
Growing Degree Days 16 (Base 50)    
Moisture  
Dew Point 53 °F    
Average Humidity 66    
Maximum Humidity 96    
Minimum Humidity 35    
Precipitation  
Precipitation 0.00 in 0.13 in 0.48 in (2015)
Month to date precipitation 1.58 3.25  
Year to date precipitation 14.41 18.32  
Sea Level Pressure  
Sea Level Pressure 30.08 in    
Wind  
Wind Speed 4 mph (South)    
Max Wind Speed 13 mph    
Max Gust Speed 20 mph    
Visibility 10 miles    
Events      
T = Trace of Precipitation, MM = Missing Value Source: NWS Daily Summary

Daily Weather History Graph

Daily Weather History Graph

Search for Another Location

Airport or City:

Trip Planner

Search our weather history database for the weather conditions in past years. The results will help you decide how hot, cold, wet, or windy it might be!

Date:

Astronomy

Jun. 23, 2014 Rise Set
Actual Time 5:14 AM EDT 8:35 PM EDT
Civil Twilight 4:39 AM EDT 9:10 PM EDT
Nautical Twilight 3:53 AM EDT 9:56 PM EDT
Astronomical Twilight 2:56 AM EDT 10:53 PM EDT
Moon 2:43 AM EDT (6/23) 5:10 PM EDT (6/23)
Length of Visible Light 16h 31m
Length of Day
15h 20m
Waning Crescent, 13% of the Moon is Illuminated
Jun 23
Waning Crescent
Jun 27
New
Jul 5
First Quarter
Jul 12
Full
Jul 18
Last Quarter

Hourly Weather History & Observations

Time (EDT) Temp. Heat Index Dew Point Humidity Pressure Visibility Wind Dir Wind Speed Gust Speed Precip Events Conditions
12:54 AM 57.0 °F - 53.1 °F 87% 30.04 in 10.0 mi Calm Calm - N/A   Mostly Cloudy
1:54 AM 55.0 °F - 51.1 °F 86% 30.04 in 10.0 mi Calm Calm - N/A   Partly Cloudy
2:54 AM 52.0 °F - 50.0 °F 93% 30.05 in 10.0 mi Calm Calm - N/A   Clear
3:54 AM 52.0 °F - 48.9 °F 89% 30.06 in 10.0 mi South 3.5 mph - N/A   Partly Cloudy
4:54 AM 52.0 °F - 50.0 °F 93% 30.06 in 10.0 mi Calm Calm - N/A   Scattered Clouds
5:54 AM 51.1 °F - 48.0 °F 89% 30.08 in 10.0 mi Calm Calm - N/A   Clear
6:54 AM 57.0 °F - 52.0 °F 83% 30.10 in 10.0 mi Calm Calm - N/A   Clear
7:54 AM 64.0 °F - 54.0 °F 70% 30.12 in 10.0 mi Calm Calm - N/A   Clear
8:54 AM 69.1 °F - 54.0 °F 58% 30.12 in 10.0 mi Calm Calm - N/A   Clear
9:54 AM 73.0 °F - 54.0 °F 51% 30.12 in 10.0 mi Variable 4.6 mph - N/A   Clear
10:54 AM 75.9 °F - 54.0 °F 46% 30.12 in 10.0 mi Calm Calm - N/A   Clear
11:54 AM 78.1 °F - 50.0 °F 37% 30.10 in 10.0 mi North 3.5 mph - N/A   Clear
12:54 PM 78.1 °F - 54.0 °F 43% 30.10 in 10.0 mi South 4.6 mph - N/A   Partly Cloudy
1:54 PM 78.1 °F - 52.0 °F 40% 30.09 in 10.0 mi WNW 9.2 mph 16.1 mph N/A   Scattered Clouds
2:54 PM 80.1 °F 79.9 °F 53.1 °F 39% 30.08 in 10.0 mi South 12.7 mph - N/A   Scattered Clouds
3:54 PM 80.1 °F - 50.0 °F 35% 30.08 in 10.0 mi South 9.2 mph - N/A   Clear
6:54 PM 77.0 °F - 54.0 °F 45% 30.07 in 10.0 mi South 6.9 mph - N/A   Clear
7:54 PM 73.9 °F - 54.0 °F 50% 30.07 in 10.0 mi South 5.8 mph - N/A   Mostly Cloudy
8:54 PM 70.0 °F - 55.0 °F 59% 30.06 in 10.0 mi Calm Calm - N/A   Clear
9:54 PM 69.1 °F - 55.0 °F 61% 30.08 in 10.0 mi NNE 3.5 mph - N/A   Clear
10:54 PM 66.9 °F - 55.9 °F 68% 30.09 in 10.0 mi Calm Calm - N/A   Partly Cloudy
11:54 PM 68.0 °F - 55.9 °F 65% 30.10 in 10.0 mi Variable 3.5 mph - N/A   Clear